Regional Weather Roundup
Issued by NWS Goodland, KS

Home | Current Version | Previous Version | Graphics & Text | Print | Product List | Glossary On
Versions: 1 2 3 4 5 6 7 8 9 10 11 12 13 14 15 16 17 18 19 20 21 22 23 24 25 26 27 28 29 30 31 32 33 34 35 36 37 38 39 40 41 42 43 44 45 46 47 48 49 50
000
ASUS43 KGLD 260859
RWRGLD

GOODLAND FORECAST AREA HOURLY WEATHER ROUNDUP
NATIONAL WEATHER SERVICE GOODLAND KS
200 AM MST FRI DEC 26 2014

...OFFICIAL OBSERVATIONS...

CITY           SKY/WX    TMP DP  RH WIND       PRES   REMARKS
GOODLAND KS    CLOUDY    25  23  92 N15G24    29.85R WCI  13
HILL CITY KS   CLOUDY    31  25  78 N16       29.89R WCI  20
IMPERIAL NEB   CLOUDY    25  21  85 N21       29.91R WCI  11
MCCOOK NEB     CLOUDY    28  23  81 N21G33    29.85F WCI  15
AKRON CO       CLOUDY    19  17  92 N16       29.87R WCI   4
BURLINGTON CO  CLOUDY    25  22  88 N21G28    29.84R WCI  11
LIMON CO       CLOUDY    18  16  92 N16G26    29.83R WCI   3
$$

...UNOFFICIAL OBSERVATIONS...

CITY           SKY/WX    TMP DP  RH WIND       PRES   REMARKS
COLBY KS       CLOUDY    28  27  93 N15G23    29.87R WCI  17
NORTON KS      CLOUDY    28  21  74 N10       29.87R WCI  19
SHARON SPRINGS   N/A     27  23  85 NE14        N/A  WCI  16
TRIBUNE KS     CLOUDY    30  27  86 N23       29.85R WCI  17
KIT CARSON CO    N/A     25  21  85 MISG        N/A
YUMA CO          N/A     22  19  86 NE14        N/A  WCI   9
$$


USA.gov is the U.S. government's official web portal to all federal, state and local government web resources and services.